[[{"header":{"parameterUnit":"m.s-1","parameterCategory":1,"la1":30.2991,"la2":30.254,"lo1":-89.0895,"lo2":-89.0444,"dy":0.0017,"dx":0.0017,"nx":28,"ny":28,"refTime":"2024-07-26T03:00:00:Z","depth":0,"parameterNumber":2,"parameterNumberName":"U-component_of_WINDS"},"data":[0,0,0,0,0,0,0,0,0,0,0,0,0,0,0,0,0,0,0,0,0,0,0,0,0,0,0,0,0,0,0,0,0,0,0,0,0,0,0,0,0,0,0,0,0,0,0,0,0,0,0,0,0,0,0,0,0,0,-2.2415,-2.2415,0,-2.2413,-2.2413,-2.2413,-2.2295,-2.2292,-2.2289,-2.2286,-2.2285,-2.2288,-2.2291,0,0,0,0,0,0,0,0,0,0,0,0,0,-2.2318,-2.2321,-2.2415,-2.2415,-2.2415,-2.2413,-2.2413,-2.2413,-2.2296,-2.2292,-2.2288,-2.2285,-2.2284,-2.2288,-2.2291,0,0,0,0,0,0,0,0,0,0,0,0,0,-2.2343,-2.2321,-2.2415,-2.2356,-2.2351,-2.2413,-2.2413,-2.2413,-2.2296,-2.2292,-2.2287,-2.2283,-2.2283,-2.2287,-2.2292,-2.241,0,0,-2.2305,-2.2307,0,0,0,0,0,0,0,0,-2.2341,-2.2346,-2.2365,-2.236,-2.2354,-2.2349,-2.2378,-2.2412,-2.2298,-2.2317,-2.2286,-2.2281,-2.2311,-2.2312,-2.2322,-2.241,-2.241,-2.2305,-2.2308,-2.231,-2.2311,0,0,0,0,0,0,0,-2.234,-2.2346,-2.2414,-2.2365,-2.2359,-2.233,-2.2328,-2.2384,-2.234,-2.2315,-2.2307,-2.2308,-2.2307,-2.2318,-2.2321,-2.241,-2.2305,-2.2309,-2.2311,-2.2313,-2.2595,-2.2599,0,0,0,0,0,0,-2.2346,-2.2345,-2.2414,-2.2414,-2.2336,-2.2336,-2.2334,-2.2356,-2.2339,-2.2332,-2.2312,-2.2302,-2.2313,-2.2316,-2.2321,-2.2458,-2.231,-2.2314,-2.2316,-2.259,-2.2596,-2.2601,0,0,0,0,0,0,-2.2345,-2.2353,-2.2414,-2.2377,-2.2383,-2.2342,-2.2368,-2.2358,-2.2369,-2.2336,-2.2328,-2.2332,-2.231,-2.2315,-2.2389,-2.2456,-2.2315,-2.2319,-2.2584,-2.2592,-2.2598,-2.2733,0,0,0,0,0,0,-2.2342,-2.2354,-2.2398,-2.2379,-2.2385,-2.2482,-2.2372,-2.2361,-2.2377,-2.2365,-2.2353,-2.2346,-2.2306,-2.2383,-2.2393,-2.2459,-2.2323,-2.2578,-2.2587,-2.2596,-2.2723,-2.2744,-2.2763,0,0,0,0,0,-2.2339,-2.2437,-2.2401,-2.241,-2.244,-2.2486,-2.249,-2.2442,-2.2383,-2.2427,-2.2406,-2.2347,-2.2447,-2.2391,-2.2402,-2.2471,-2.2573,-2.2585,-2.2595,-2.2714,-2.274,-2.2763,0,0,0,0,0,0,-2.2465,-2.2433,-2.2393,-2.2487,-2.249,-2.2466,-2.2521,-2.2472,-2.2492,-2.248,-2.2419,-2.2418,-2.2501,-2.2493,-2.2432,-2.2584,-2.25,-2.2513,-2.2586,-2.2611,-2.2631,-2.2631,-2.2326,0,0,0,0,0,-2.2504,-2.2544,-2.2514,-2.26,-2.2603,-2.2562,-2.2581,-2.2543,-2.2544,-2.2545,-2.2529,-2.2533,-2.2565,-2.2588,-2.2615,-2.2721,-2.2716,-2.2773,-2.2794,-2.281,-2.2823,-2.2877,-2.2902,-2.2637,-2.2637,-2.2637,0,0,-2.2584,-2.2571,-2.2601,-2.2625,-2.2623,-2.2666,-2.2564,-2.2614,-2.2645,-2.2553,-2.2621,-2.261,-2.261,-2.27,-2.2739,-2.2696,-2.2895,-2.2824,-2.2838,-2.2841,-2.2891,-2.2917,-2.2939,-2.2645,-2.2643,-2.2642,0,0,-2.2752,-2.2747,-2.2818,-2.2818,-2.2816,-2.2788,-2.2805,-2.2789,-2.2777,-2.2845,-2.2776,-2.2813,-2.287,-2.2872,-2.2881,-2.305,-2.2996,-2.3061,-2.3167,-2.3221,-2.3241,-2.326,-2.332,-2.3342,-2.3074,-2.3074,-2.3074,0,-2.2852,-2.2914,-2.286,-2.2915,-2.2927,-2.2845,-2.2916,-2.2919,-2.2927,-2.2937,-2.2889,-2.2958,-2.2952,-2.3042,-2.3083,-2.3093,-2.3111,-2.3062,-2.3243,-2.326,-2.3277,-2.3333,-2.3356,-2.3082,-2.3081,-2.308,-2.3079,0,-2.3037,-2.3081,-2.3138,-2.3147,-2.3166,-2.3229,-2.3185,-2.3211,-2.3172,-2.3149,-2.3219,-2.3209,-2.3233,-2.3252,-2.3215,-2.3336,-2.3309,-2.3253,-2.3167,-2.3311,-2.3363,-2.3384,-2.3093,-2.309,-2.3088,-2.3086,0,0,-2.3284,-2.3262,-2.3284,-2.3287,-2.3279,-2.3312,-2.3371,-2.3394,-2.3417,-2.3426,-2.3473,-2.3523,-2.3471,-2.3481,-2.3443,-2.3491,-2.3625,-2.3428,-2.3427,-2.3465,-2.3758,-2.38,-2.3826,-2.3589,-2.3593,-2.3596,-2.3757,0,-2.3447,-2.3545,-2.3499,-2.3603,-2.3643,-2.3565,-2.3616,-2.3617,-2.3598,-2.3629,-2.3607,-2.3643,-2.3571,-2.3577,-2.362,-2.36,-2.3683,-2.3587,-2.3633,-2.3635,-2.3635,-2.3853,-2.3898,-2.4051,-2.3778,-2.3781,-2.3783,0,-2.3649,-2.3665,-2.3773,-2.3757,-2.3772,-2.3819,-2.3836,-2.3867,-2.3866,-2.3849,-2.386,-2.3812,-2.3868,-2.3783,-2.3861,-2.3797,-2.3813,-2.3805,-2.381,-2.3812,-2.3718,-2.3861,-2.4098,-2.4121,-2.3815,-2.3812,-2.381,0,-2.3818,-2.3867,-2.3937,-2.3942,-2.3926,-2.396,-2.3955,-2.395,-2.3967,-2.3982,-2.3992,-2.4014,-2.4027,-2.4045,-2.4003,-2.3945,-2.4087,-2.3998,-2.4073,-2.4075,-2.4106,-2.4105,-2.4349,-2.4118,-2.4118,-2.4117,-2.4117,0,-2.4003,-2.4073,-2.4013,-2.4057,-2.4132,-2.4078,-2.4154,-2.414,-2.4136,-2.4175,-2.411,-2.4149,-2.4092,-2.4125,-2.4093,-2.4162,-2.4168,-2.4155,-2.4146,-2.4161,-2.4163,-2.417,-2.4158,-2.4123,-2.4122,-2.4121,-2.412,0,-2.4205,-2.4167,-2.4239,-2.4218,-2.4214,-2.427,-2.4252,-2.4291,-2.4267,-2.4318,-2.4327,-2.4289,-2.4325,-2.4285,-2.4318,-2.4297,-2.4389,-2.4365,-2.439,-2.4382,-2.446,-2.4453,-2.4717,-2.4749,-2.4498,-2.4501,-2.4503,0,-2.4325,-2.4376,-2.436,-2.4382,-2.438,-2.4416,-2.4433,-2.4382,-2.4402,-2.4405,-2.4444,-2.4474,-2.4495,-2.4556,-2.4532,-2.4557,-2.4532,-2.4623,-2.4535,-2.4548,-2.4532,-2.453,-2.4534,-2.464,-2.4643,-2.4646,-2.4648,0,-2.4543,-2.4522,-2.4548,-2.4569,-2.459,-2.4604,-2.4612,-2.4634,-2.4581,-2.4607,-2.4642,-2.4659,-2.4692,-2.4722,-2.474,-2.4735,-2.4683,-2.4676,-2.4694,-2.471,-2.4722,-2.4716,-2.4438,-2.467,-2.4668,-2.4666,-2.4665,-2.4664,-2.4707,-2.4748,-2.4743,-2.4775,-2.4776,-2.4786,-2.4821,-2.4802,-2.483,-2.4853,-2.4821,-2.4865,-2.4863,-2.4881,-2.4882,-2.4916,-2.4877,-2.4904,-2.4911,-2.4918,-2.493,-2.4717,-2.4919,-2.4918,-2.4918,-2.4917,-2.4917,0,-2.492,-2.4913,-2.4943,-2.4957,-2.4982,-2.493,-2.4937,-2.4961,-2.5001,-2.5003,-2.5025,-2.5066,-2.5095,-2.5074,-2.5098,-2.513,-2.5106,-2.5138,-2.5135,-2.5134,-2.4963,-2.4944,-2.5156,-2.5156,-2.5156,-2.5156,-2.5156,-2.5156,-2.5034,-2.5102,-2.5081,-2.5149,-2.5141,-2.5183,-2.5191,-2.52,-2.5201,-2.525,-2.5273,-2.5259,-2.5252,-2.5275,-2.53,-2.5293,-2.5305,-2.5345,-2.5329,-2.517,-2.5146,-2.5124,-2.5106,-2.5348,-2.5348,-2.5497,-2.5498,-2.5499]},{"header":{"parameterUnit":"m.s-1","parameterCategory":1,"la1":30.2991,"la2":30.254,"lo1":-89.0895,"lo2":-89.0444,"dy":0.0017,"dx":0.0017,"nx":28,"ny":28,"refTime":"2024-07-26T03:00:00:Z","depth":0,"parameterNumber":3,"parameterNumberName":"V-component_of_WINDS"},"data":[0,0,0,0,0,0,0,0,0,0,0,0,0,0,0,0,0,0,0,0,0,0,0,0,0,0,0,0,0,0,0,0,0,0,0,0,0,0,0,0,0,0,0,0,0,0,0,0,0,0,0,0,0,0,0,0,0,0,-2.1528,-2.1528,0,-2.1505,-2.1505,-2.1505,-2.1455,-2.1454,-2.1453,-2.1452,-2.1428,-2.1428,-2.1428,0,0,0,0,0,0,0,0,0,0,0,0,0,-2.1527,-2.1527,-2.1528,-2.1528,-2.1528,-2.1505,-2.1505,-2.1505,-2.1455,-2.1454,-2.1453,-2.1451,-2.1427,-2.1428,-2.1428,0,0,0,0,0,0,0,0,0,0,0,0,0,-2.1518,-2.1527,-2.1528,-2.15,-2.1497,-2.1505,-2.1505,-2.1504,-2.1455,-2.1454,-2.1452,-2.1451,-2.1427,-2.1428,-2.1428,-2.1461,0,0,-2.143,-2.143,0,0,0,0,0,0,0,0,-2.1518,-2.1518,-2.1505,-2.1502,-2.1499,-2.1481,-2.1495,-2.149,-2.1456,-2.1471,-2.1452,-2.145,-2.1447,-2.1445,-2.1444,-2.146,-2.1459,-2.143,-2.143,-2.143,-2.143,0,0,0,0,0,0,0,-2.1519,-2.1519,-2.1519,-2.1505,-2.1501,-2.1488,-2.1485,-2.1494,-2.1468,-2.147,-2.1466,-2.1464,-2.1445,-2.1444,-2.1443,-2.1459,-2.143,-2.143,-2.143,-2.143,-2.1496,-2.1497,0,0,0,0,0,0,-2.1524,-2.1519,-2.152,-2.1518,-2.1505,-2.1489,-2.1486,-2.1489,-2.1467,-2.1463,-2.1465,-2.1462,-2.1444,-2.1443,-2.1442,-2.1477,-2.143,-2.143,-2.1431,-2.1495,-2.1496,-2.1498,0,0,0,0,0,0,-2.1524,-2.1524,-2.1521,-2.1518,-2.1516,-2.1491,-2.1494,-2.1489,-2.1488,-2.1464,-2.1459,-2.147,-2.1443,-2.1442,-2.1456,-2.1475,-2.1431,-2.1431,-2.1493,-2.1495,-2.1497,-2.1548,0,0,0,0,0,0,-2.1524,-2.1525,-2.1538,-2.1519,-2.1517,-2.1536,-2.1495,-2.149,-2.1489,-2.1484,-2.1467,-2.1462,-2.1442,-2.1456,-2.1456,-2.1475,-2.1431,-2.1491,-2.1494,-2.1496,-2.1544,-2.1552,-2.1558,0,0,0,0,0,-2.1524,-2.1554,-2.1539,-2.1539,-2.1533,-2.1537,-2.1536,-2.1512,-2.1491,-2.1503,-2.1487,-2.1463,-2.1473,-2.1458,-2.1458,-2.1477,-2.149,-2.1493,-2.1496,-2.1541,-2.155,-2.1558,0,0,0,0,0,0,-2.1577,-2.1551,-2.1534,-2.1559,-2.155,-2.1529,-2.1544,-2.1522,-2.152,-2.1515,-2.1485,-2.1481,-2.1499,-2.149,-2.1472,-2.1506,-2.1477,-2.1481,-2.1511,-2.152,-2.1526,-2.1527,-2.1432,0,0,0,0,0,-2.1592,-2.1598,-2.1575,-2.1598,-2.1595,-2.157,-2.1571,-2.1553,-2.1543,-2.1539,-2.1525,-2.1516,-2.1516,-2.1518,-2.1517,-2.1543,-2.1537,-2.1556,-2.1563,-2.1568,-2.1571,-2.1581,-2.1588,-2.1509,-2.1509,-2.1509,0,0,-2.1622,-2.1608,-2.1614,-2.1608,-2.16,-2.1605,-2.1568,-2.1576,-2.158,-2.1541,-2.1552,-2.1541,-2.1529,-2.1548,-2.1556,-2.1541,-2.1592,-2.1572,-2.1577,-2.1577,-2.1585,-2.1592,-2.1599,-2.1511,-2.1511,-2.151,0,0,-2.1678,-2.167,-2.1687,-2.1679,-2.1666,-2.1649,-2.1653,-2.1634,-2.1625,-2.1636,-2.1606,-2.1609,-2.1612,-2.1603,-2.16,-2.165,-2.1626,-2.1651,-2.1685,-2.1695,-2.1701,-2.1706,-2.1722,-2.1728,-2.1654,-2.1654,-2.1654,0,-2.1717,-2.1726,-2.1699,-2.1708,-2.1705,-2.1669,-2.1685,-2.1678,-2.1666,-2.1665,-2.1648,-2.1648,-2.1638,-2.1653,-2.1665,-2.1664,-2.1666,-2.1652,-2.1702,-2.1707,-2.1712,-2.1726,-2.1732,-2.1657,-2.1657,-2.1656,-2.1656,0,-2.1772,-2.1778,-2.1793,-2.1781,-2.178,-2.1793,-2.1767,-2.1769,-2.175,-2.1734,-2.1744,-2.173,-2.1724,-2.1727,-2.1709,-2.1738,-2.1729,-2.1708,-2.1678,-2.1723,-2.1735,-2.1741,-2.1661,-2.166,-2.1659,-2.1658,0,0,-2.1863,-2.1834,-2.184,-2.1832,-2.1814,-2.1818,-2.1828,-2.1822,-2.1823,-2.1815,-2.1821,-2.1823,-2.1802,-2.1798,-2.1779,-2.1787,-2.1824,-2.1764,-2.1764,-2.1774,-2.1852,-2.1867,-2.1874,-2.1809,-2.181,-2.1811,-2.1852,0,-2.1914,-2.193,-2.1905,-2.1926,-2.1929,-2.1894,-2.1902,-2.1891,-2.1875,-2.1875,-2.1858,-2.1859,-2.1833,-2.1829,-2.1836,-2.1818,-2.1839,-2.1815,-2.1812,-2.1813,-2.1815,-2.1881,-2.1897,-2.1937,-2.1857,-2.1858,-2.1859,0,-2.1977,-2.1971,-2.1992,-2.1969,-2.197,-2.1978,-2.1968,-2.1969,-2.1955,-2.1943,-2.1937,-2.1913,-2.1919,-2.1891,-2.1898,-2.1882,-2.1879,-2.187,-2.1871,-2.1868,-2.1838,-2.1878,-2.195,-2.1955,-2.1867,-2.1866,-2.1866,0,-2.2038,-2.2035,-2.2046,-2.2041,-2.2016,-2.2022,-2.2012,-2.1996,-2.1993,-2.1985,-2.1982,-2.1975,-2.1971,-2.1965,-2.1939,-2.1922,-2.1948,-2.1919,-2.1936,-2.1937,-2.1943,-2.1943,-2.2013,-2.1944,-2.1944,-2.1944,-2.1944,0,-2.2097,-2.2111,-2.2073,-2.208,-2.2093,-2.2063,-2.2077,-2.2063,-2.2048,-2.205,-2.202,-2.2022,-2.1989,-2.1987,-2.1967,-2.1974,-2.1973,-2.1962,-2.1956,-2.1964,-2.1965,-2.196,-2.1956,-2.1946,-2.1945,-2.1945,-2.1945,0,-2.2167,-2.2143,-2.2152,-2.2127,-2.212,-2.2131,-2.2109,-2.2113,-2.2095,-2.2098,-2.2097,-2.2068,-2.2064,-2.2038,-2.2029,-2.2015,-2.2028,-2.2018,-2.2033,-2.2029,-2.2047,-2.2045,-2.2116,-2.2123,-2.2052,-2.2052,-2.2053,0,-2.2206,-2.2215,-2.219,-2.2189,-2.218,-2.2179,-2.2175,-2.2145,-2.2142,-2.2125,-2.2131,-2.2124,-2.2117,-2.2112,-2.209,-2.2082,-2.207,-2.2095,-2.2068,-2.2074,-2.2067,-2.2066,-2.2066,-2.21,-2.2101,-2.2102,-2.2103,0,-2.2276,-2.2263,-2.2259,-2.2249,-2.2246,-2.2237,-2.2227,-2.2227,-2.2194,-2.2192,-2.2187,-2.2182,-2.2171,-2.2164,-2.2151,-2.2139,-2.2114,-2.2111,-2.2114,-2.2122,-2.2129,-2.2123,-2.2046,-2.211,-2.2109,-2.2108,-2.2108,-2.2108,-2.233,-2.2335,-2.2318,-2.2313,-2.2302,-2.2292,-2.2294,-2.2275,-2.2271,-2.2259,-2.2241,-2.2238,-2.2221,-2.2201,-2.219,-2.2186,-2.2173,-2.2178,-2.2179,-2.2181,-2.2183,-2.2131,-2.2184,-2.2184,-2.2184,-2.2184,-2.2184,0,-2.2397,-2.2383,-2.2379,-2.2364,-2.236,-2.2338,-2.2324,-2.2321,-2.2319,-2.2305,-2.2298,-2.2291,-2.2283,-2.2259,-2.2249,-2.225,-2.2238,-2.2248,-2.2247,-2.2244,-2.2198,-2.2195,-2.2257,-2.2257,-2.2257,-2.2257,-2.2257,-2.2257,-2.2431,-2.2437,-2.2422,-2.2421,-2.2407,-2.2404,-2.2397,-2.2387,-2.2375,-2.2368,-2.2362,-2.2346,-2.2327,-2.2314,-2.2305,-2.2298,-2.2295,-2.2308,-2.2297,-2.2254,-2.2247,-2.2241,-2.2238,-2.2308,-2.2308,-2.2343,-2.2343,-2.2344]}]]